Time,TemperatureF,DewpointF,PressureIn,WindDirection,WindDirectionDegrees,WindSpeedMPH,WindSpeedGustMPH,Humidity,HourlyPrecipIn,Conditions,Clouds,dailyrainin,SoftwareType,DateUTC
2013-08-04 00:01:00,56.9,54.3,30.06,NW,322,0.0,0.0,91,0.00,,,0.00,VWS V14.01,2013-08-04 04:01:00,
2013-08-04 00:06:00,56.7,54.1,30.06,NW,322,0.0,0.0,91,0.00,,,0.00,VWS V14.01,2013-08-04 04:06:00,
2013-08-04 00:11:00,56.6,54.0,30.06,NW,322,0.0,0.0,91,0.00,,,0.00,VWS V14.01,2013-08-04 04:11:00,
2013-08-04 00:16:00,56.5,53.9,30.06,NW,322,0.0,0.0,91,0.00,,,0.00,VWS V14.01,2013-08-04 04:16:00,
2013-08-04 00:21:00,56.3,53.7,30.06,NW,322,0.0,0.0,91,0.00,,,0.00,VWS V14.01,2013-08-04 04:21:00,
2013-08-04 00:26:00,56.2,53.9,30.07,NW,322,0.0,0.0,92,0.00,,,0.00,VWS V14.01,2013-08-04 04:26:00,
2013-08-04 00:31:00,56.0,53.7,30.07,NW,322,0.0,0.0,92,0.00,,,0.00,VWS V14.01,2013-08-04 04:31:00,
2013-08-04 00:36:00,55.9,53.6,30.07,NW,322,0.0,0.0,92,0.00,,,0.00,VWS V14.01,2013-08-04 04:36:00,
2013-08-04 00:41:00,55.8,53.5,30.07,NW,322,0.0,0.0,92,0.00,,,0.00,VWS V14.01,2013-08-04 04:41:00,
2013-08-04 00:46:00,55.7,53.7,30.07,NW,322,0.0,0.0,93,0.00,,,0.00,VWS V14.01,2013-08-04 04:46:00,
2013-08-04 00:51:00,55.5,53.2,30.07,NW,322,0.0,0.0,92,0.00,,,0.00,VWS V14.01,2013-08-04 04:51:00,
2013-08-04 00:56:00,55.3,53.0,30.07,NW,322,0.0,0.0,92,0.00,,,0.00,VWS V14.01,2013-08-04 04:56:00,
2013-08-04 01:01:00,55.2,53.2,30.07,NW,322,0.0,0.0,93,0.00,,,0.00,VWS V14.01,2013-08-04 05:01:00,
2013-08-04 01:06:00,55.1,53.1,30.07,NW,322,0.0,0.0,93,0.00,,,0.00,VWS V14.01,2013-08-04 05:06:00,
2013-08-04 01:11:00,55.0,53.0,30.07,NW,322,0.0,0.0,93,0.00,,,0.00,VWS V14.01,2013-08-04 05:11:00,
2013-08-04 01:16:00,54.9,52.9,30.07,NW,322,0.0,0.0,93,0.00,,,0.00,VWS V14.01,2013-08-04 05:16:00,
2013-08-04 01:21:00,54.8,52.8,30.07,NW,322,0.0,0.0,93,0.00,,,0.00,VWS V14.01,2013-08-04 05:21:00,
2013-08-04 01:26:00,54.7,53.0,30.07,NW,322,0.0,0.0,94,0.00,,,0.00,VWS V14.01,2013-08-04 05:26:00,
2013-08-04 01:31:00,54.6,52.9,30.08,NW,322,0.0,0.0,94,0.00,,,0.00,VWS V14.01,2013-08-04 05:31:00,
2013-08-04 01:36:00,54.6,52.9,30.08,NW,322,0.0,0.0,94,0.00,,,0.00,VWS V14.01,2013-08-04 05:36:00,
2013-08-04 01:41:00,54.6,52.9,30.08,NW,322,0.0,0.0,94,0.00,,,0.00,VWS V14.01,2013-08-04 05:41:00,
2013-08-04 01:46:00,54.5,52.8,30.08,NW,322,0.0,0.0,94,0.00,,,0.00,VWS V14.01,2013-08-04 05:46:00,
2013-08-04 01:51:00,54.5,52.8,30.08,NW,322,0.0,0.0,94,0.00,,,0.00,VWS V14.01,2013-08-04 05:51:00,
2013-08-04 01:56:00,54.4,52.7,30.08,NW,322,0.0,0.0,94,0.00,,,0.00,VWS V14.01,2013-08-04 05:56:00,
2013-08-04 02:01:00,54.3,52.6,30.08,NW,322,0.0,0.0,94,0.00,,,0.00,VWS V14.01,2013-08-04 06:01:00,
2013-08-04 02:06:00,54.2,52.5,30.08,NW,322,0.0,0.0,94,0.00,,,0.00,VWS V14.01,2013-08-04 06:06:00,
2013-08-04 02:11:00,54.1,52.4,30.08,NW,322,0.0,0.0,94,0.00,,,0.00,VWS V14.01,2013-08-04 06:11:00,
2013-08-04 02:16:00,54.0,52.3,30.09,NW,322,0.0,0.0,94,0.00,,,0.00,VWS V14.01,2013-08-04 06:16:00,
2013-08-04 02:21:00,53.9,52.2,30.09,NW,322,0.0,0.0,94,0.00,,,0.00,VWS V14.01,2013-08-04 06:21:00,
2013-08-04 02:26:00,53.8,52.4,30.09,NW,322,0.0,0.0,95,0.00,,,0.00,VWS V14.01,2013-08-04 06:26:00,
2013-08-04 02:31:00,53.8,52.4,30.08,NW,322,0.0,0.0,95,0.00,,,0.00,VWS V14.01,2013-08-04 06:31:00,
2013-08-04 02:37:00,53.7,52.3,30.09,NW,322,0.0,0.0,95,0.00,,,0.00,VWS V14.01,2013-08-04 06:37:00,
2013-08-04 02:42:00,53.7,52.3,30.09,NW,322,0.0,0.0,95,0.00,,,0.00,VWS V14.01,2013-08-04 06:42:00,
2013-08-04 02:47:00,53.7,52.3,30.09,NW,322,0.0,0.0,95,0.00,,,0.00,VWS V14.01,2013-08-04 06:47:00,
2013-08-04 02:52:00,53.7,52.3,30.09,NW,322,0.0,0.0,95,0.00,,,0.00,VWS V14.01,2013-08-04 06:52:00,
2013-08-04 02:57:00,53.6,52.2,30.09,NW,322,0.0,0.0,95,0.00,,,0.00,VWS V14.01,2013-08-04 06:57:00,
2013-08-04 03:01:00,53.5,52.1,30.09,NW,322,0.0,0.0,95,0.00,,,0.00,VWS V14.01,2013-08-04 07:01:00,
2013-08-04 03:07:00,53.3,51.9,30.09,NW,322,0.0,0.0,95,0.00,,,0.00,VWS V14.01,2013-08-04 07:07:00,
2013-08-04 03:12:00,53.2,51.8,30.09,NW,322,0.0,0.0,95,0.00,,,0.00,VWS V14.01,2013-08-04 07:12:00,
2013-08-04 03:17:00,53.2,51.8,30.10,NW,322,0.0,0.0,95,0.00,,,0.00,VWS V14.01,2013-08-04 07:17:00,
2013-08-04 03:22:00,53.2,51.8,30.09,NW,322,0.0,0.0,95,0.00,,,0.00,VWS V14.01,2013-08-04 07:22:00,
2013-08-04 03:27:00,53.2,51.8,30.10,NW,322,0.0,0.0,95,0.00,,,0.00,VWS V14.01,2013-08-04 07:27:00,
2013-08-04 03:32:00,53.1,51.7,30.10,NW,322,0.0,0.0,95,0.00,,,0.00,VWS V14.01,2013-08-04 07:32:00,
2013-08-04 03:37:00,53.0,51.6,30.10,NW,322,0.0,0.0,95,0.00,,,0.00,VWS V14.01,2013-08-04 07:37:00,
2013-08-04 03:42:00,53.0,51.9,30.10,NW,323,0.0,0.0,96,0.00,,,0.00,VWS V14.01,2013-08-04 07:42:00,
2013-08-04 03:47:00,52.9,51.8,30.10,NW,322,0.0,0.0,96,0.00,,,0.00,VWS V14.01,2013-08-04 07:47:00,
2013-08-04 03:52:00,52.8,51.7,30.11,NW,322,0.0,0.0,96,0.00,,,0.00,VWS V14.01,2013-08-04 07:52:00,
2013-08-04 03:56:00,52.9,51.8,30.11,NW,322,0.0,0.0,96,0.00,,,0.00,VWS V14.01,2013-08-04 07:56:00,
2013-08-04 04:01:00,53.1,52.0,30.11,NW,322,0.0,0.0,96,0.00,,,0.00,VWS V14.01,2013-08-04 08:01:00,
2013-08-04 04:07:00,53.1,52.0,30.10,NW,322,0.0,0.0,96,0.00,,,0.00,VWS V14.01,2013-08-04 08:07:00,
2013-08-04 04:12:00,53.1,52.0,30.11,NW,322,0.0,0.0,96,0.00,,,0.00,VWS V14.01,2013-08-04 08:12:00,
2013-08-04 04:16:00,53.0,51.9,30.11,NW,322,0.0,0.0,96,0.00,,,0.00,VWS V14.01,2013-08-04 08:16:00,
2013-08-04 04:22:00,52.9,51.8,30.11,NW,322,0.0,0.0,96,0.00,,,0.00,VWS V14.01,2013-08-04 08:22:00,
2013-08-04 04:27:00,52.8,51.7,30.11,NW,322,0.0,0.0,96,0.00,,,0.00,VWS V14.01,2013-08-04 08:27:00,
2013-08-04 04:32:00,52.8,51.7,30.11,NW,322,0.0,0.0,96,0.00,,,0.00,VWS V14.01,2013-08-04 08:32:00,
2013-08-04 04:37:00,52.7,51.6,30.11,NW,322,0.0,0.0,96,0.00,,,0.00,VWS V14.01,2013-08-04 08:37:00,
2013-08-04 04:42:00,52.6,51.5,30.11,NW,322,0.0,0.0,96,0.00,,,0.00,VWS V14.01,2013-08-04 08:42:00,
2013-08-04 04:47:00,52.5,51.4,30.11,NW,322,0.0,0.0,96,0.00,,,0.00,VWS V14.01,2013-08-04 08:47:00,
2013-08-04 04:52:00,52.4,51.3,30.11,NW,322,0.0,0.0,96,0.00,,,0.00,VWS V14.01,2013-08-04 08:52:00,
2013-08-04 04:57:00,52.4,51.6,30.11,NW,322,0.0,0.0,97,0.00,,,0.00,VWS V14.01,2013-08-04 08:57:00,
2013-08-04 05:02:00,52.5,51.7,30.11,NW,322,0.0,0.0,97,0.00,,,0.00,VWS V14.01,2013-08-04 09:02:00,
2013-08-04 05:07:00,52.5,51.7,30.11,NW,322,0.0,0.0,97,0.00,,,0.00,VWS V14.01,2013-08-04 09:07:00,
2013-08-04 05:12:00,52.5,51.7,30.11,NW,322,0.0,0.0,97,0.00,,,0.00,VWS V14.01,2013-08-04 09:12:00,
2013-08-04 05:16:00,52.5,51.7,30.11,NW,323,0.0,0.0,97,0.00,,,0.00,VWS V14.01,2013-08-04 09:16:00,
2013-08-04 05:22:00,52.6,51.8,30.11,NW,322,0.0,0.0,97,0.00,,,0.00,VWS V14.01,2013-08-04 09:22:00,
2013-08-04 05:27:00,52.7,51.9,30.11,NW,322,0.0,0.0,97,0.00,,,0.00,VWS V14.01,2013-08-04 09:27:00,
2013-08-04 05:31:00,52.9,52.1,30.11,NW,322,0.0,0.0,97,0.00,,,0.00,VWS V14.01,2013-08-04 09:31:00,
2013-08-04 05:36:00,53.0,52.2,30.11,NW,322,0.0,0.0,97,0.00,,,0.00,VWS V14.01,2013-08-04 09:36:00,
2013-08-04 05:42:00,53.2,52.4,30.11,NW,322,0.0,0.0,97,0.00,,,0.00,VWS V14.01,2013-08-04 09:42:00,
2013-08-04 05:47:00,53.4,52.8,30.11,NW,322,0.0,0.0,98,0.00,,,0.00,VWS V14.01,2013-08-04 09:47:00,
2013-08-04 05:52:00,53.7,53.2,30.11,NW,322,0.0,0.0,98,0.00,,,0.00,VWS V14.01,2013-08-04 09:52:00,
2013-08-04 05:57:00,53.9,53.3,30.11,NW,322,0.0,0.0,98,0.00,,,0.00,VWS V14.01,2013-08-04 09:57:00,
2013-08-04 06:02:00,54.0,53.5,30.11,NW,322,0.0,0.0,98,0.00,,,0.00,VWS V14.01,2013-08-04 10:02:00,
2013-08-04 06:07:00,54.1,53.5,30.11,NW,322,0.0,0.0,98,0.00,,,0.00,VWS V14.01,2013-08-04 10:07:00,
2013-08-04 06:12:00,54.2,53.7,30.11,NW,322,0.0,0.0,98,0.00,,,0.00,VWS V14.01,2013-08-04 10:12:00,
2013-08-04 06:17:00,54.2,53.7,30.11,NW,322,0.0,0.0,98,0.00,,,0.00,VWS V14.01,2013-08-04 10:17:00,
2013-08-04 06:22:00,54.2,53.4,30.10,NW,323,0.0,0.0,97,0.00,,,0.00,VWS V14.01,2013-08-04 10:22:00,
2013-08-04 06:27:00,54.2,53.4,30.11,NW,322,0.0,0.0,97,0.00,,,0.00,VWS V14.01,2013-08-04 10:27:00,
2013-08-04 06:32:00,54.1,53.3,30.11,NW,322,0.0,0.0,97,0.00,,,0.00,VWS V14.01,2013-08-04 10:32:00,
2013-08-04 06:37:00,54.0,53.2,30.11,NW,322,0.0,0.0,97,0.00,,,0.00,VWS V14.01,2013-08-04 10:37:00,
2013-08-04 06:42:00,53.9,53.1,30.12,NW,322,0.0,0.0,97,0.00,,,0.00,VWS V14.01,2013-08-04 10:42:00,
2013-08-04 06:47:00,53.8,53.0,30.12,NW,322,0.0,0.0,97,0.00,,,0.00,VWS V14.01,2013-08-04 10:47:00,
2013-08-04 06:52:00,53.7,52.9,30.12,NW,322,0.0,0.0,97,0.00,,,0.00,VWS V14.01,2013-08-04 10:52:00,
2013-08-04 06:57:00,53.6,52.8,30.13,NW,322,0.0,0.0,97,0.00,,,0.00,VWS V14.01,2013-08-04 10:57:00,
2013-08-04 07:02:00,53.5,52.7,30.13,NW,322,0.0,0.0,97,0.00,,,0.00,VWS V14.01,2013-08-04 11:02:00,
2013-08-04 07:07:00,53.5,53.0,30.13,NW,322,0.0,0.0,98,0.00,,,0.00,VWS V14.01,2013-08-04 11:07:00,
2013-08-04 07:12:00,53.6,53.0,30.13,NW,322,0.0,0.0,98,0.00,,,0.00,VWS V14.01,2013-08-04 11:12:00,
2013-08-04 07:17:00,53.5,53.0,30.14,NW,322,0.0,0.0,98,0.00,,,0.00,VWS V14.01,2013-08-04 11:17:00,
2013-08-04 07:22:00,53.5,52.7,30.14,NW,322,0.0,0.0,97,0.00,,,0.00,VWS V14.01,2013-08-04 11:22:00,
2013-08-04 07:27:00,53.4,52.8,30.14,NW,322,0.0,0.0,98,0.00,,,0.00,VWS V14.01,2013-08-04 11:27:00,
2013-08-04 07:32:00,53.5,53.0,30.14,NW,322,0.0,0.0,98,0.00,,,0.00,VWS V14.01,2013-08-04 11:32:00,
2013-08-04 07:37:00,53.6,53.0,30.14,NW,322,0.0,0.0,98,0.00,,,0.00,VWS V14.01,2013-08-04 11:37:00,
2013-08-04 07:42:00,53.6,53.0,30.14,NW,322,0.0,0.0,98,0.00,,,0.00,VWS V14.01,2013-08-04 11:42:00,
2013-08-04 07:47:00,53.7,53.2,30.14,NW,322,0.0,0.0,98,0.00,,,0.00,VWS V14.01,2013-08-04 11:47:00,
2013-08-04 07:52:00,53.7,53.2,30.15,NW,322,0.0,0.0,98,0.00,,,0.00,VWS V14.01,2013-08-04 11:52:00,
2013-08-04 07:57:00,53.8,53.2,30.14,NW,322,0.0,0.0,98,0.00,,,0.00,VWS V14.01,2013-08-04 11:57:00,
2013-08-04 08:02:00,53.8,53.2,30.14,NW,322,0.0,0.0,98,0.00,,,0.00,VWS V14.01,2013-08-04 12:02:00,
2013-08-04 08:07:00,54.0,53.5,30.14,NW,322,0.0,0.0,98,0.00,,,0.00,VWS V14.01,2013-08-04 12:07:00,
2013-08-04 08:12:00,54.3,53.8,30.14,NW,322,0.0,0.0,98,0.00,,,0.00,VWS V14.01,2013-08-04 12:12:00,
2013-08-04 08:17:00,54.7,54.2,30.14,NW,322,0.0,0.0,98,0.00,,,0.00,VWS V14.01,2013-08-04 12:17:00,
2013-08-04 08:21:00,55.1,54.8,30.15,NW,322,0.0,0.0,99,0.00,,,0.00,VWS V14.01,2013-08-04 12:21:00,
2013-08-04 08:27:00,55.9,55.6,30.15,NNW,346,0.0,0.0,99,0.00,,,0.00,VWS V14.01,2013-08-04 12:27:00,
2013-08-04 08:32:00,56.4,56.1,30.15,NNE,32,0.0,0.0,99,0.00,,,0.00,VWS V14.01,2013-08-04 12:32:00,
2013-08-04 08:37:00,56.9,56.6,30.15,NNE,32,0.0,0.0,99,0.00,,,0.00,VWS V14.01,2013-08-04 12:37:00,
2013-08-04 08:42:00,57.3,57.0,30.15,NNE,32,0.0,0.0,99,0.00,,,0.00,VWS V14.01,2013-08-04 12:42:00,
2013-08-04 08:47:00,57.7,57.4,30.15,NNE,32,0.0,0.0,99,0.00,,,0.00,VWS V14.01,2013-08-04 12:47:00,
2013-08-04 08:52:00,58.0,57.7,30.15,NNE,32,0.0,0.0,99,0.00,,,0.00,VWS V14.01,2013-08-04 12:52:00,
2013-08-04 08:56:00,58.3,58.0,30.15,NNE,13,0.0,1.0,99,0.00,,,0.00,VWS V14.01,2013-08-04 12:56:00,
2013-08-04 09:02:00,58.5,58.2,30.15,NNE,13,0.0,1.0,99,0.00,,,0.00,VWS V14.01,2013-08-04 13:02:00,
2013-08-04 09:07:00,58.8,58.5,30.15,NNE,13,0.0,0.0,99,0.00,,,0.00,VWS V14.01,2013-08-04 13:07:00,
2013-08-04 09:12:00,59.0,58.4,30.15,NNE,13,0.0,0.0,98,0.00,,,0.00,VWS V14.01,2013-08-04 13:12:00,
2013-08-04 09:17:00,59.2,58.9,30.15,NNE,13,0.0,0.0,99,0.00,,,0.00,VWS V14.01,2013-08-04 13:17:00,
2013-08-04 09:22:00,59.3,59.0,30.15,NNE,13,0.0,0.0,99,0.00,,,0.00,VWS V14.01,2013-08-04 13:22:00,
2013-08-04 09:27:00,59.5,58.9,30.16,North,5,1.0,1.0,98,0.00,,,0.00,VWS V14.01,2013-08-04 13:27:00,
2013-08-04 09:32:00,59.4,58.8,30.16,NE,46,0.0,1.0,98,0.00,,,0.00,VWS V14.01,2013-08-04 13:32:00,
2013-08-04 09:37:00,59.4,58.8,30.16,NE,46,0.0,1.0,98,0.00,,,0.00,VWS V14.01,2013-08-04 13:37:00,
2013-08-04 09:42:00,59.5,58.9,30.16,NE,46,0.0,1.0,98,0.00,,,0.00,VWS V14.01,2013-08-04 13:42:00,
2013-08-04 09:47:00,59.4,58.8,30.16,NE,46,0.0,1.0,98,0.00,,,0.00,VWS V14.01,2013-08-04 13:47:00,
2013-08-04 09:52:00,59.5,58.9,30.17,NE,38,0.0,1.0,98,0.00,,,0.00,VWS V14.01,2013-08-04 13:52:00,
2013-08-04 09:57:00,59.8,59.2,30.17,NE,38,0.0,1.0,98,0.00,,,0.00,VWS V14.01,2013-08-04 13:57:00,
2013-08-04 10:02:00,60.1,59.2,30.17,NE,38,0.0,1.0,97,0.00,,,0.00,VWS V14.01,2013-08-04 14:02:00,
2013-08-04 10:07:00,60.6,59.5,30.17,NE,38,0.0,1.0,96,0.00,,,0.00,VWS V14.01,2013-08-04 14:07:00,
2013-08-04 10:12:00,61.1,59.4,30.17,NE,38,0.0,1.0,94,0.00,,,0.00,VWS V14.01,2013-08-04 14:12:00,
2013-08-04 10:17:00,61.9,59.5,30.17,NE,38,0.0,1.0,92,0.00,,,0.00,VWS V14.01,2013-08-04 14:17:00,
2013-08-04 10:22:00,64.2,58.6,30.17,ENE,63,0.0,1.0,82,0.00,,,0.00,VWS V14.01,2013-08-04 14:22:00,
2013-08-04 10:27:00,65.8,58.8,30.17,ENE,63,0.0,1.0,78,0.00,,,0.00,VWS V14.01,2013-08-04 14:27:00,
2013-08-04 10:32:00,66.6,57.7,30.17,ENE,63,1.0,1.0,73,0.00,,,0.00,VWS V14.01,2013-08-04 14:32:00,
2013-08-04 10:37:00,67.2,57.9,30.18,East,80,0.0,2.0,72,0.00,,,0.00,VWS V14.01,2013-08-04 14:37:00,
2013-08-04 10:42:00,67.7,57.2,30.17,SE,134,0.0,2.0,69,0.00,,,0.00,VWS V14.01,2013-08-04 14:42:00,
2013-08-04 10:47:00,68.4,58.2,30.17,WNW,303,0.0,3.0,70,0.00,,,0.00,VWS V14.01,2013-08-04 14:47:00,
2013-08-04 10:52:00,68.6,58.0,30.18,NNW,345,0.0,5.0,69,0.00,,,0.00,VWS V14.01,2013-08-04 14:52:00,
2013-08-04 10:57:00,68.5,56.7,30.17,SE,139,0.0,5.0,66,0.00,,,0.00,VWS V14.01,2013-08-04 14:57:00,
2013-08-04 11:02:00,68.7,58.5,30.17,SE,130,0.0,5.0,70,0.00,,,0.00,VWS V14.01,2013-08-04 15:02:00,
2013-08-04 11:07:00,68.9,57.9,30.17,SE,130,0.0,2.0,68,0.00,,,0.00,VWS V14.01,2013-08-04 15:07:00,
2013-08-04 11:12:00,69.6,58.2,30.17,North,355,0.0,4.0,67,0.00,,,0.00,VWS V14.01,2013-08-04 15:12:00,
2013-08-04 11:17:00,70.0,58.5,30.17,North,360,0.0,4.0,67,0.00,,,0.00,VWS V14.01,2013-08-04 15:17:00,
2013-08-04 11:22:00,70.4,57.7,30.17,West,266,0.0,2.0,64,0.00,,,0.00,VWS V14.01,2013-08-04 15:22:00,
2013-08-04 11:27:00,70.2,59.2,30.17,ENE,61,1.0,2.0,68,0.00,,,0.00,VWS V14.01,2013-08-04 15:27:00,
2013-08-04 11:32:00,69.9,59.3,30.17,East,101,1.0,2.0,69,0.00,,,0.00,VWS V14.01,2013-08-04 15:32:00,
2013-08-04 11:37:00,70.2,59.6,30.17,ENE,62,3.0,4.0,69,0.00,,,0.00,VWS V14.01,2013-08-04 15:37:00,
2013-08-04 11:42:00,70.1,59.5,30.17,NW,317,1.0,4.0,69,0.00,,,0.00,VWS V14.01,2013-08-04 15:42:00,
2013-08-04 11:47:00,70.6,58.7,30.17,West,278,1.0,4.0,66,0.00,,,0.00,VWS V14.01,2013-08-04 15:47:00,
2013-08-04 11:52:00,71.0,58.2,30.17,NE,55,0.0,3.0,64,0.00,,,0.00,VWS V14.01,2013-08-04 15:52:00,
2013-08-04 11:57:00,71.2,59.3,30.17,NE,55,0.0,3.0,66,0.00,,,0.00,VWS V14.01,2013-08-04 15:57:00,
2013-08-04 12:02:00,71.6,58.8,30.17,SSE,159,0.0,3.0,64,0.00,,,0.00,VWS V14.01,2013-08-04 16:02:00,
2013-08-04 12:07:00,71.7,59.3,30.17,NW,311,0.0,3.0,65,0.00,,,0.00,VWS V14.01,2013-08-04 16:07:00,
2013-08-04 12:11:00,72.1,60.5,30.17,NE,38,0.0,3.0,67,0.00,,,0.00,VWS V14.01,2013-08-04 16:11:00,
2013-08-04 12:17:00,71.8,59.4,30.17,NNE,31,0.0,4.0,65,0.00,,,0.00,VWS V14.01,2013-08-04 16:17:00,
2013-08-04 12:22:00,71.4,58.6,30.16,ESE,111,0.0,4.0,64,0.00,,,0.00,VWS V14.01,2013-08-04 16:22:00,
2013-08-04 12:27:00,72.4,60.8,30.16,WNW,293,2.0,4.0,67,0.00,,,0.00,VWS V14.01,2013-08-04 16:27:00,
2013-08-04 12:32:00,72.9,61.7,30.16,NE,49,0.0,3.0,68,0.00,,,0.00,VWS V14.01,2013-08-04 16:32:00,
2013-08-04 12:37:00,72.6,58.4,30.16,NW,306,0.0,7.0,61,0.00,,,0.00,VWS V14.01,2013-08-04 16:37:00,
2013-08-04 12:42:00,72.8,59.5,30.15,WNW,302,0.0,7.0,63,0.00,,,0.00,VWS V14.01,2013-08-04 16:42:00,
2013-08-04 12:47:00,73.4,60.5,30.15,NE,40,0.0,7.0,64,0.00,,,0.00,VWS V14.01,2013-08-04 16:47:00,
2013-08-04 12:52:00,73.5,58.3,30.15,West,263,1.0,5.0,59,0.00,,,0.00,VWS V14.01,2013-08-04 16:52:00,
2013-08-04 12:57:00,73.0,59.7,30.15,WNW,284,2.0,5.0,63,0.00,,,0.00,VWS V14.01,2013-08-04 16:57:00,
2013-08-04 13:02:00,72.0,58.3,30.15,ENE,71,0.0,5.0,62,0.00,,,0.00,VWS V14.01,2013-08-04 17:02:00,
2013-08-04 13:07:00,72.2,60.7,30.15,ENE,75,0.0,2.0,67,0.00,,,0.00,VWS V14.01,2013-08-04 17:07:00,
2013-08-04 13:12:00,72.7,58.5,30.15,North,355,0.0,3.0,61,0.00,,,0.00,VWS V14.01,2013-08-04 17:12:00,
2013-08-04 13:17:00,72.5,59.2,30.15,WNW,291,0.0,3.0,63,0.00,,,0.00,VWS V14.01,2013-08-04 17:17:00,
2013-08-04 13:22:00,72.8,59.9,30.15,NNW,348,0.0,4.0,64,0.00,,,0.00,VWS V14.01,2013-08-04 17:22:00,
2013-08-04 13:27:00,73.3,59.5,30.15,NW,317,0.0,4.0,62,0.00,,,0.00,VWS V14.01,2013-08-04 17:27:00,
2013-08-04 13:31:00,74.1,57.9,30.15,West,275,0.0,5.0,57,0.00,,,0.00,VWS V14.01,2013-08-04 17:31:00,
2013-08-04 13:36:00,73.8,57.6,30.15,NNW,339,0.0,5.0,57,0.00,,,0.00,VWS V14.01,2013-08-04 17:36:00,
2013-08-04 13:42:00,73.2,59.4,30.15,North,9,0.0,6.0,62,0.00,,,0.00,VWS V14.01,2013-08-04 17:42:00,
2013-08-04 13:47:00,73.6,60.2,30.15,NNW,348,0.0,6.0,63,0.00,,,0.00,VWS V14.01,2013-08-04 17:47:00,
2013-08-04 13:52:00,74.6,58.4,30.15,NNE,12,0.0,4.0,57,0.00,,,0.00,VWS V14.01,2013-08-04 17:52:00,
2013-08-04 13:57:00,73.9,60.1,30.15,ENE,61,0.0,4.0,62,0.00,,,0.00,VWS V14.01,2013-08-04 17:57:00,
2013-08-04 14:02:00,74.4,61.4,30.15,West,274,5.0,5.0,64,0.00,,,0.00,VWS V14.01,2013-08-04 18:02:00,
2013-08-04 14:07:00,74.1,59.3,30.15,NW,319,2.0,5.0,60,0.00,,,0.00,VWS V14.01,2013-08-04 18:07:00,
2013-08-04 14:12:00,74.2,59.4,30.14,NE,43,0.0,5.0,60,0.00,,,0.00,VWS V14.01,2013-08-04 18:12:00,
2013-08-04 14:17:00,75.1,59.3,30.14,West,269,3.0,4.0,58,0.00,,,0.00,VWS V14.01,2013-08-04 18:17:00,
2013-08-04 14:22:00,74.6,57.9,30.14,NW,313,0.0,6.0,56,0.00,,,0.00,VWS V14.01,2013-08-04 18:22:00,
2013-08-04 14:27:00,73.8,59.1,30.14,ESE,119,0.0,6.0,60,0.00,,,0.00,VWS V14.01,2013-08-04 18:27:00,
2013-08-04 14:32:00,74.2,58.5,30.14,West,275,4.0,6.0,58,0.00,,,0.00,VWS V14.01,2013-08-04 18:32:00,
2013-08-04 14:37:00,74.1,57.9,30.14,NE,56,1.0,6.0,57,0.00,,,0.00,VWS V14.01,2013-08-04 18:37:00,
2013-08-04 14:42:00,74.6,59.3,30.14,WSW,237,0.0,6.0,59,0.00,,,0.00,VWS V14.01,2013-08-04 18:42:00,
2013-08-04 14:47:00,74.6,56.4,30.14,West,269,1.0,5.0,53,0.00,,,0.00,VWS V14.01,2013-08-04 18:47:00,
2013-08-04 14:52:00,75.1,55.8,30.14,North,360,0.0,5.0,51,0.00,,,0.00,VWS V14.01,2013-08-04 18:52:00,
2013-08-04 14:57:00,74.9,57.7,30.14,NNW,347,0.0,5.0,55,0.00,,,0.00,VWS V14.01,2013-08-04 18:57:00,
2013-08-04 15:02:00,75.1,57.3,30.14,WSW,243,0.0,5.0,54,0.00,,,0.00,VWS V14.01,2013-08-04 19:02:00,
2013-08-04 15:07:00,75.4,59.6,30.14,West,281,0.0,5.0,58,0.00,,,0.00,VWS V14.01,2013-08-04 19:07:00,
2013-08-04 15:12:00,75.5,57.7,30.14,West,273,2.0,5.0,54,0.00,,,0.00,VWS V14.01,2013-08-04 19:12:00,
2013-08-04 15:17:00,75.4,56.6,30.14,West,275,2.0,5.0,52,0.00,,,0.00,VWS V14.01,2013-08-04 19:17:00,
2013-08-04 15:22:00,75.7,55.8,30.14,NW,306,0.0,7.0,50,0.00,,,0.00,VWS V14.01,2013-08-04 19:22:00,
2013-08-04 15:27:00,74.9,55.6,30.14,West,270,0.0,7.0,51,0.00,,,0.00,VWS V14.01,2013-08-04 19:27:00,
2013-08-04 15:32:00,75.6,57.8,30.14,North,5,0.0,5.0,54,0.00,,,0.00,VWS V14.01,2013-08-04 19:32:00,
2013-08-04 15:37:00,75.4,56.0,30.14,NW,306,0.0,5.0,51,0.00,,,0.00,VWS V14.01,2013-08-04 19:37:00,
2013-08-04 15:42:00,75.3,56.5,30.14,NW,321,0.0,5.0,52,0.00,,,0.00,VWS V14.01,2013-08-04 19:42:00,
2013-08-04 15:47:00,75.5,56.1,30.14,West,269,1.0,5.0,51,0.00,,,0.00,VWS V14.01,2013-08-04 19:47:00,
2013-08-04 15:52:00,75.3,53.1,30.13,West,279,0.0,5.0,46,0.00,,,0.00,VWS V14.01,2013-08-04 19:52:00,
2013-08-04 15:57:00,75.2,54.8,30.13,West,263,3.0,5.0,49,0.00,,,0.00,VWS V14.01,2013-08-04 19:57:00,
2013-08-04 16:02:00,75.2,53.6,30.13,West,264,1.0,5.0,47,0.00,,,0.00,VWS V14.01,2013-08-04 20:02:00,
2013-08-04 16:07:00,75.2,53.6,30.13,NW,313,0.0,5.0,47,0.00,,,0.00,VWS V14.01,2013-08-04 20:07:00,
2013-08-04 16:12:00,75.1,54.7,30.13,NNW,331,0.0,5.0,49,0.00,,,0.00,VWS V14.01,2013-08-04 20:12:00,
2013-08-04 16:17:00,75.0,55.1,30.12,East,86,0.0,5.0,50,0.00,,,0.00,VWS V14.01,2013-08-04 20:17:00,
2013-08-04 16:22:00,74.9,55.6,30.12,NE,46,0.0,5.0,51,0.00,,,0.00,VWS V14.01,2013-08-04 20:22:00,
2013-08-04 16:27:00,75.4,56.0,30.12,North,9,0.0,5.0,51,0.00,,,0.00,VWS V14.01,2013-08-04 20:27:00,
2013-08-04 16:32:00,75.5,56.1,30.12,WNW,282,0.0,5.0,51,0.00,,,0.00,VWS V14.01,2013-08-04 20:32:00,
2013-08-04 16:37:00,75.8,57.5,30.12,WNW,293,0.0,4.0,53,0.00,,,0.00,VWS V14.01,2013-08-04 20:37:00,
2013-08-04 16:42:00,75.3,55.9,30.12,NNE,29,0.0,3.0,51,0.00,,,0.00,VWS V14.01,2013-08-04 20:42:00,
2013-08-04 16:47:00,75.3,55.9,30.12,North,9,0.0,3.0,51,0.00,,,0.00,VWS V14.01,2013-08-04 20:47:00,
2013-08-04 16:52:00,74.8,58.1,30.11,NE,37,1.0,6.0,56,0.00,,,0.00,VWS V14.01,2013-08-04 20:52:00,
2013-08-04 16:57:00,73.6,54.9,30.11,WSW,255,2.0,7.0,52,0.00,,,0.00,VWS V14.01,2013-08-04 20:57:00,
2013-08-04 17:01:00,73.0,55.4,30.11,NE,55,0.0,7.0,54,0.00,,,0.00,VWS V14.01,2013-08-04 21:01:00,
2013-08-04 17:07:00,72.9,56.3,30.11,NW,314,0.0,7.0,56,0.00,,,0.00,VWS V14.01,2013-08-04 21:07:00,
2013-08-04 17:12:00,73.2,56.6,30.11,NW,311,0.0,5.0,56,0.00,,,0.00,VWS V14.01,2013-08-04 21:12:00,
2013-08-04 17:17:00,73.4,55.8,30.11,North,350,0.0,5.0,54,0.00,,,0.00,VWS V14.01,2013-08-04 21:17:00,
2013-08-04 17:22:00,73.2,56.1,30.12,NNW,348,1.0,5.0,55,0.00,,,0.00,VWS V14.01,2013-08-04 21:22:00,
2013-08-04 17:27:00,73.0,54.4,30.12,WNW,301,2.0,5.0,52,0.00,,,0.00,VWS V14.01,2013-08-04 21:27:00,
2013-08-04 17:32:00,72.8,55.7,30.12,West,281,0.0,5.0,55,0.00,,,0.00,VWS V14.01,2013-08-04 21:32:00,
2013-08-04 17:37:00,72.8,55.2,30.12,WNW,282,0.0,5.0,54,0.00,,,0.00,VWS V14.01,2013-08-04 21:37:00,
2013-08-04 17:42:00,72.7,56.1,30.12,NNE,26,0.0,5.0,56,0.00,,,0.00,VWS V14.01,2013-08-04 21:42:00,
2013-08-04 17:47:00,72.8,56.7,30.12,NNE,17,5.0,5.0,57,0.00,,,0.00,VWS V14.01,2013-08-04 21:47:00,
2013-08-04 17:49:00,72.8,55.7,30.12,West,275,1.0,5.0,55,0.00,,,0.00,VWS V14.01,2013-08-04 21:49:00,
2013-08-04 17:54:00,72.7,56.1,30.12,NNW,348,0.0,5.0,56,0.00,,,0.00,VWS V14.01,2013-08-04 21:54:00,
2013-08-04 17:59:00,72.7,56.1,30.12,WNW,288,0.0,5.0,56,0.00,,,0.00,VWS V14.01,2013-08-04 21:59:00,
2013-08-04 18:04:00,72.6,55.5,30.13,NNW,348,0.0,2.0,55,0.00,,,0.00,VWS V14.01,2013-08-04 22:04:00,
2013-08-04 18:09:00,72.6,55.0,30.12,SSW,194,0.0,3.0,54,0.00,,,0.00,VWS V14.01,2013-08-04 22:09:00,
2013-08-04 18:14:00,72.5,54.9,30.13,West,270,4.0,4.0,54,0.00,,,0.00,VWS V14.01,2013-08-04 22:14:00,
2013-08-04 18:19:00,72.3,54.7,30.12,NW,322,0.0,5.0,54,0.00,,,0.00,VWS V14.01,2013-08-04 22:19:00,
2013-08-04 18:24:00,72.2,55.7,30.12,WNW,296,3.0,5.0,56,0.00,,,0.00,VWS V14.01,2013-08-04 22:24:00,
2013-08-04 18:29:00,72.1,55.6,30.12,West,263,2.0,5.0,56,0.00,,,0.00,VWS V14.01,2013-08-04 22:29:00,
2013-08-04 18:33:00,72.0,55.5,30.12,NW,309,0.0,4.0,56,0.00,,,0.00,VWS V14.01,2013-08-04 22:33:00,
2013-08-04 18:38:00,71.9,55.4,30.12,North,360,0.0,3.0,56,0.00,,,0.00,VWS V14.01,2013-08-04 22:38:00,
2013-08-04 18:43:00,71.7,56.2,30.11,NNE,28,0.0,3.0,58,0.00,,,0.00,VWS V14.01,2013-08-04 22:43:00,
2013-08-04 19:42:00,68.5,57.5,30.11,WSW,248,0.0,0.0,68,0.00,,,0.00,VWS V14.01,2013-08-04 23:42:00,
2013-08-04 19:47:00,67.7,57.2,30.11,WSW,250,0.0,0.0,69,0.00,,,0.00,VWS V14.01,2013-08-04 23:47:00,
2013-08-04 19:52:00,67.2,57.5,30.11,WSW,250,0.0,0.0,71,0.00,,,0.00,VWS V14.01,2013-08-04 23:52:00,
2013-08-04 19:57:00,66.8,57.1,30.11,WSW,250,0.0,0.0,71,0.00,,,0.00,VWS V14.01,2013-08-04 23:57:00,
2013-08-04 20:02:00,66.6,57.3,30.11,WSW,250,0.0,0.0,72,0.00,,,0.00,VWS V14.01,2013-08-05 00:02:00,
2013-08-04 20:07:00,66.5,57.6,30.11,WSW,250,0.0,0.0,73,0.00,,,0.00,VWS V14.01,2013-08-05 00:07:00,
2013-08-04 20:12:00,66.3,57.4,30.11,WSW,250,0.0,0.0,73,0.00,,,0.00,VWS V14.01,2013-08-05 00:12:00,
2013-08-04 20:17:00,66.1,57.2,30.11,WSW,250,0.0,0.0,73,0.00,,,0.00,VWS V14.01,2013-08-05 00:17:00,
2013-08-04 20:22:00,65.8,56.9,30.11,WSW,250,0.0,0.0,73,0.00,,,0.00,VWS V14.01,2013-08-05 00:22:00,
2013-08-04 20:27:00,65.4,56.9,30.11,WSW,252,0.0,0.0,74,0.00,,,0.00,VWS V14.01,2013-08-05 00:27:00,
2013-08-04 20:32:00,65.1,57.0,30.11,WSW,252,0.0,0.0,75,0.00,,,0.00,VWS V14.01,2013-08-05 00:32:00,
2013-08-04 20:37:00,64.7,57.3,30.11,WSW,252,0.0,0.0,77,0.00,,,0.00,VWS V14.01,2013-08-05 00:37:00,
2013-08-04 20:42:00,64.3,57.0,30.11,WSW,252,0.0,0.0,77,0.00,,,0.00,VWS V14.01,2013-08-05 00:42:00,
2013-08-04 20:47:00,64.0,56.7,30.11,WSW,252,0.0,0.0,77,0.00,,,0.00,VWS V14.01,2013-08-05 00:47:00,
2013-08-04 20:52:00,63.8,56.8,30.11,WSW,252,0.0,0.0,78,0.00,,,0.00,VWS V14.01,2013-08-05 00:52:00,
2013-08-04 20:57:00,63.5,56.5,30.11,WSW,252,0.0,0.0,78,0.00,,,0.00,VWS V14.01,2013-08-05 00:57:00,
2013-08-04 21:01:00,63.2,56.2,30.11,WSW,252,0.0,0.0,78,0.00,,,0.00,VWS V14.01,2013-08-05 01:01:00,
2013-08-04 21:07:00,63.1,56.8,30.11,WSW,252,0.0,0.0,80,0.00,,,0.00,VWS V14.01,2013-08-05 01:07:00,
2013-08-04 21:12:00,62.9,56.6,30.11,WSW,252,0.0,0.0,80,0.00,,,0.00,VWS V14.01,2013-08-05 01:12:00,
2013-08-04 21:17:00,62.7,56.1,30.11,WSW,252,0.0,0.0,79,0.00,,,0.00,VWS V14.01,2013-08-05 01:17:00,
2013-08-04 21:21:00,62.5,55.9,30.11,WSW,252,0.0,0.0,79,0.00,,,0.00,VWS V14.01,2013-08-05 01:21:00,
2013-08-04 21:27:00,62.3,55.4,30.10,WSW,252,0.0,0.0,78,0.00,,,0.00,VWS V14.01,2013-08-05 01:27:00,
2013-08-04 21:31:00,62.2,55.3,30.10,WSW,252,0.0,0.0,78,0.00,,,0.00,VWS V14.01,2013-08-05 01:31:00,
2013-08-04 21:37:00,62.0,55.4,30.10,WSW,252,0.0,0.0,79,0.00,,,0.00,VWS V14.01,2013-08-05 01:37:00,
2013-08-04 21:41:00,61.9,55.3,30.10,WSW,252,0.0,0.0,79,0.00,,,0.00,VWS V14.01,2013-08-05 01:41:00,
2013-08-04 21:47:00,61.8,55.6,30.10,WSW,252,0.0,0.0,80,0.00,,,0.00,VWS V14.01,2013-08-05 01:47:00,
2013-08-04 21:52:00,61.7,55.5,30.10,WSW,252,0.0,0.0,80,0.00,,,0.00,VWS V14.01,2013-08-05 01:52:00,
2013-08-04 21:57:00,61.6,55.7,30.10,WSW,252,0.0,0.0,81,0.00,,,0.00,VWS V14.01,2013-08-05 01:57:00,
2013-08-04 22:02:00,61.4,55.5,30.11,WSW,252,0.0,0.0,81,0.00,,,0.00,VWS V14.01,2013-08-05 02:02:00,
2013-08-04 22:07:00,61.2,55.7,30.11,WSW,252,0.0,0.0,82,0.00,,,0.00,VWS V14.01,2013-08-05 02:07:00,
2013-08-04 22:12:00,61.0,55.5,30.11,WSW,252,0.0,0.0,82,0.00,,,0.00,VWS V14.01,2013-08-05 02:12:00,
2013-08-04 22:17:00,60.9,55.7,30.11,WSW,252,0.0,0.0,83,0.00,,,0.00,VWS V14.01,2013-08-05 02:17:00,
2013-08-04 22:22:00,60.8,55.6,30.11,WSW,252,0.0,0.0,83,0.00,,,0.00,VWS V14.01,2013-08-05 02:22:00,
2013-08-04 22:27:00,60.6,55.8,30.10,WSW,252,0.0,0.0,84,0.00,,,0.00,VWS V14.01,2013-08-05 02:27:00,
2013-08-04 22:31:00,60.5,55.7,30.11,WSW,252,0.0,0.0,84,0.00,,,0.00,VWS V14.01,2013-08-05 02:31:00,
2013-08-04 22:37:00,60.3,55.5,30.11,WSW,252,0.0,0.0,84,0.00,,,0.00,VWS V14.01,2013-08-05 02:37:00,
2013-08-04 22:41:00,60.1,55.3,30.11,WSW,252,0.0,0.0,84,0.00,,,0.00,VWS V14.01,2013-08-05 02:41:00,
2013-08-04 22:47:00,60.0,55.5,30.11,WSW,252,0.0,0.0,85,0.00,,,0.00,VWS V14.01,2013-08-05 02:47:00,
2013-08-04 22:52:00,59.8,55.3,30.10,WSW,252,0.0,0.0,85,0.00,,,0.00,VWS V14.01,2013-08-05 02:52:00,
2013-08-04 22:57:00,59.6,55.4,30.10,WSW,252,0.0,0.0,86,0.00,,,0.00,VWS V14.01,2013-08-05 02:57:00,
2013-08-04 23:02:00,59.4,55.2,30.11,WSW,252,0.0,0.0,86,0.00,,,0.00,VWS V14.01,2013-08-05 03:02:00,
2013-08-04 23:07:00,59.2,55.3,30.11,WSW,252,0.0,0.0,87,0.00,,,0.00,VWS V14.01,2013-08-05 03:07:00,
2013-08-04 23:12:00,59.0,55.1,30.11,WSW,252,0.0,0.0,87,0.00,,,0.00,VWS V14.01,2013-08-05 03:12:00,
2013-08-04 23:17:00,58.8,55.0,30.11,WSW,252,0.0,0.0,87,0.00,,,0.00,VWS V14.01,2013-08-05 03:17:00,
2013-08-04 23:22:00,58.6,55.1,30.11,WSW,252,0.0,0.0,88,0.00,,,0.00,VWS V14.01,2013-08-05 03:22:00,
2013-08-04 23:26:00,58.4,54.9,30.11,WSW,253,0.0,0.0,88,0.00,,,0.00,VWS V14.01,2013-08-05 03:26:00,
2013-08-04 23:32:00,58.2,55.0,30.10,WSW,253,0.0,0.0,89,0.00,,,0.00,VWS V14.01,2013-08-05 03:32:00,
2013-08-04 23:37:00,57.9,54.7,30.10,WSW,253,0.0,0.0,89,0.00,,,0.00,VWS V14.01,2013-08-05 03:37:00,
2013-08-04 23:41:00,57.7,54.5,30.10,WSW,253,0.0,0.0,89,0.00,,,0.00,VWS V14.01,2013-08-05 03:41:00,
2013-08-04 23:46:00,57.5,54.6,30.10,WSW,253,0.0,0.0,90,0.00,,,0.00,VWS V14.01,2013-08-05 03:46:00,
2013-08-04 23:52:00,57.3,54.4,30.10,WSW,253,0.0,0.0,90,0.00,,,0.00,VWS V14.01,2013-08-05 03:52:00,
2013-08-04 23:57:00,57.1,54.2,30.10,WSW,253,0.0,0.0,90,0.00,,,0.00,VWS V14.01,2013-08-05 03:57:00,